Content
SEND FEEDBACK

Daily
Averages
Monthly
Summary
Philippines

PUNTA ENGANA, PHILIPPINES


Home > Asia > Philippines
Elevation: 79 feet     Latitude: 10 18N     Longitude: 123 58E

WEATHER
 
SELECT A DAY
Number of Records: 155,469;   Date Range: 2/21/97 - 9/21/14
 
SHARE

PRINT THIS DATA

[ ← Previous Day ]
WEATHER ALMANAC - JANUARY 23, 2013
[ Next Day → ]
[ °C ]   °F
Weather ElementAverageHighLow
Temperature80.3 °F85 °F (2:00 pm)76 °F (5:00 am)
Dewpoint72.8 °F78 °F (11:00 am)69.8 °F (11:00 am)
Humidity77.3 %89 % (2:00 am)62 % (11:00 am)
Barometer29.89 in29.95 in (1:00 am)29.83 in (3:00 pm)
Wind Speed8.6 mph18.4 mph (10:00 am)
Weather ElementAverage
Visibility8 mi
Wind DirectionSSE (170.4 °)

Weather ElementTotal
Precipitation---
Cooling Degree Days15.5 (Base 65)
Growing Degree Days30.5 (Base 50)
Averaged from 30 records on January 23, 2013
WEATHER CONDITIONS BREAKOUT
WIND DIRECTION BREAKOUT
WEATHER BY HOUR - JANUARY 23, 2013
[ °C ]   °F
Local TimeTemperatureDewpointHumidityBarometerVisibilityWind DirectionWind SpeedGust SpeedPrecipitationEventsConditions
1:00 AM78.8 °F71.6 °F78 %29.95 in6.2 miNorth (350°)9.2 mphOvercast
2:00 AM77.0 °F74.0 °F89 %29.94 in11.0 miCalmScattered Clouds
2:00 AM78.8 °F71.6 °F78 %29.92 in6.2 miNorth (350°)9.2 mphOvercast
3:00 AM78.8 °F71.6 °F78 %29.89 in6.2 miNorth (360°)6.9 mphOvercast
4:00 AM77.0 °F71.6 °F83 %29.89 in6.2 miNorth (10°)9.2 mphOvercast
5:00 AM76.0 °F73.0 °F88 %29.92 in11.0 miCalmPartly Cloudy
5:00 AM77.0 °F71.6 °F83 %29.89 in6.2 miNNE (20°)9.2 mphOvercast
6:00 AM78.8 °F71.6 °F78 %29.89 in6.2 miNorth (10°)11.5 mphOvercast
7:00 AM77.0 °F71.6 °F83 %29.89 in6.2 miNorth (350°)10.4 mphOvercast
8:00 AM78.0 °F74.0 °F84 %29.95 in12.0 miCalmPartly Cloudy
8:00 AM78.8 °F71.6 °F78 %29.92 in6.2 miNorth (360°)13.8 mphOvercast
9:00 AM82.4 °F71.6 °F70 %29.92 in6.2 miNorth (360°)16.1 mphOvercast
10:00 AM84.2 °F71.6 °F66 %29.89 in6.2 miNorth (10°)18.4 mphOvercast
11:00 AM83.0 °F78.0 °F79 %29.92 in19.0 miNorth4.5 mphPartly Cloudy
11:00 AM84.2 °F69.8 °F62 %29.89 in6.2 miNNE (30°)15.0 mphMostly Cloudy
12:00 PM84.2 °F69.8 °F62 %29.89 in6.2 miNNE (20°)16.1 mphMostly Cloudy
2:00 PM85.0 °F78.0 °F73 %29.87 in16.0 miNE (40°)4.5 mphPartly Cloudy
2:00 PM82.4 °F73.4 °F74 %29.86 in6.2 miNNE (20°)16.1 mphOvercast
3:00 PM84.2 °F71.6 °F66 %29.83 in6.2 miNNE (20°)11.5 mphOvercast
4:00 PM82.4 °F71.6 °F70 %29.83 in6.2 miNNE (20°)15.0 mphMostly Cloudy
5:00 PM82.0 °F76.0 °F78 %29.86 in12.0 miNE (40°)2.2 mphPartly Cloudy
5:00 PM82.4 °F71.6 °F70 %29.86 in6.2 miNorth (10°)13.8 mphMostly Cloudy
6:00 PM80.6 °F71.6 °F74 %29.86 in6.2 miNorth (350°)8.1 mphOvercast
7:00 PM80.6 °F73.4 °F79 %29.86 in6.2 miNorth (350°)5.8 mphOvercast
8:00 PM80.0 °F75.0 °F81 %29.91 in11.0 miNE (40°)4.5 mphPartly Cloudy
8:00 PM80.6 °F73.4 °F79 %29.89 in6.2 miNorth (360°)6.9 mphOvercast
9:00 PM78.8 °F73.4 °F83 %29.89 in6.2 miNorth (360°)6.9 mphOvercast
10:00 PM78.8 °F73.4 °F83 %29.92 in6.2 miNorth (350°)4.6 mphOvercast
11:00 PM78.0 °F75.0 °F88 %29.93 in11.0 miNE (50°)2.2 mphScattered Clouds
11:00 PM78.8 °F73.4 °F83 %29.89 in6.2 miNorth (360°)6.9 mphOvercast
Hourly data recorded from RPVM, located miles away from Punta Engana, Philippines







STORIES FROM OUR PARTNERS